This demonstration page uses our WeatherBlox Daily Observations layout. Learn more.

Left ArrowRight Arrow

39.92423, -83.80882

Hourly Observations for July 28, 2022

Temp ( °F °C ) Dew Point ( °F °C ) Humidity (%) Winds ( mph kmh ) Pressure ( in mb ) Visibility ( mi km ) Precip ( " mm )
12:56 am 00:56 Mostly Clear N/A N/A N/A SW 6 9 N/A 9 14 0.00 0.00
1:44 am 01:44 Mostly Cloudy N/A N/A N/A WSW 8 13 N/A 10 16 0.00 0.00
1:56 am 01:56 Mostly Cloudy N/A N/A N/A WSW 9 15 N/A 10 16 0.00 0.00
2:06 am 02:06 Partly Cloudy 72 22 N/A N/A W 6 9 29.89 1012 10 16 0.00 0.00
2:56 am 02:56 Clear N/A N/A N/A W 5 7 N/A 10 16 0.00 0.00
3:56 am 03:56 Clear N/A N/A N/A WSW 7 11 N/A 9 14 0.00 0.00
4:56 am 04:56 Cloudy N/A N/A N/A SSW 7 11 N/A 7 11 0.00 0.00
5:23 am 05:23 Mostly Cloudy N/A N/A N/A SW 8 13 N/A 7 11 0.00 0.00
5:56 am 05:56 Cloudy N/A N/A N/A SW 7 11 N/A 8 13 0.00 0.00
6:09 am 06:09 Mostly Cloudy with Haze N/A N/A N/A SW 7 11 N/A 6 10 0.00 0.00
6:27 am 06:27 Mostly Cloudy with Haze N/A N/A N/A SW 6 9 N/A 4 6 0.00 0.00
6:36 am 06:36 Mostly Cloudy with Haze N/A N/A N/A SW 6 9 N/A 4 6 0.00 0.00
6:56 am 06:56 Cloudy with Haze N/A N/A N/A SW 5 7 N/A 5 8 0.00 0.00
7:56 am 07:56 Cloudy with Haze N/A N/A N/A SW 5 7 N/A 4 6 0.00 0.00
8:16 am 08:16 Cloudy with Heavy Rain N/A N/A N/A WSW 14 22 N/A 3 5 0.00 0.00
8:38 am 08:38 Cloudy N/A N/A N/A W 8 13 N/A 7 11 0.00 0.00
8:56 am 08:56 Mostly Cloudy 73 23 N/A N/A W 6 9 29.91 1013 8 13 0.00 0.00
9:23 am 09:23 Partly Cloudy 75 24 N/A N/A WSW 9 15 29.91 1013 10 16 0.00 0.00
9:32 am 09:32 Mostly Cloudy 75 24 N/A N/A W 8 13 29.91 1013 10 16 0.00 0.00
9:39 am 09:39 Mostly Cloudy 75 24 N/A N/A W 10 17 29.91 1013 10 16 0.00 0.00
9:56 am 09:56 Mostly Cloudy 75 24 N/A N/A WNW 8 13 29.92 1013 10 16 0.00 0.00
10:10 am 10:10 Partly Cloudy 77 25 77 25 100 100 W 9 15 29.91 1013 10 16 0.00 0.00
10:19 am 10:19 Mostly Cloudy 77 25 75 24 94 94 W 12 19 29.91 1013 10 16 0.00 0.00
10:27 am 10:27 Partly Cloudy 79 26 75 24 89 89 W 8 13 29.91 1013 10 16 0.00 0.00
10:41 am 10:41 Mostly Cloudy 79 26 73 23 84 84 W 9 15 29.91 1013 10 16 0.00 0.00
10:56 am 10:56 Mostly Cloudy 79 26.1 74 23.3 85 85 W 10 17 29.91 1013 10 16 0.00 0.00
11:56 am 11:56 Mostly Sunny 80 26.7 70 21.1 71 71 WNW 9 15 29.92 1013 10 16 0.00 0.00
12:56 pm 12:56 Sunny 82 27.8 67 19.4 60 60 W 8 13 29.91 1013 10 16 0.00 0.00
1:56 pm 13:56 Sunny 83 28.3 65 18.3 55 55 WNW 12 19 29.91 1013 10 16 0.00 0.00
2:56 pm 14:56 Sunny 83 28.3 66 18.9 57 57 W 10 17 29.90 1013 10 16 0.00 0.00
3:56 pm 15:56 Sunny 84 28.9 66 18.9 55 55 WSW 5 7 29.88 1012 10 16 0.00 0.00
4:56 pm 16:56 Sunny 84 28.9 67 19.4 57 57 WSW 9 15 29.87 1011 10 16 0.00 0.00
5:56 pm 17:56 Sunny 84 28.9 65 18.3 53 53 W 9 15 29.87 1011 10 16 0.00 0.00
6:56 pm 18:56 Sunny 80 26.7 66 18.9 62 62 W 5 7 29.88 1012 10 16 0.00 0.00
7:56 pm 19:56 Sunny 76 24.4 76 24.4 100 100 WSW 5 7 29.90 1012 10 16 0.00 0.00
8:56 pm 20:56 Clear 73 22.8 73 22.8 100 100 SW 5 7 29.93 1014 10 16 0.00 0.00
9:56 pm 21:56 Clear 73 22.8 72 22.2 96 96 W 6 9 29.94 1014 10 16 0.00 0.00
10:56 pm 22:56 Clear 72 22.2 72 22.2 100 100 WSW 6 9 29.94 1014 10 16 0.00 0.00
11:56 pm 23:56 Clear 72 22.2 72 22.2 100 100 SSW 5 7 29.93 1014 10 16 0.00 0.00

Powered by AerisWeather